C/2017 B3 ( LINEAR )

Japanese version
Home page
Updated on February 27, 2017

---------------------------------------------------------------------

* Profile

Discovery Date January 26, 2017
Magnitude 19.2 mag
Discoverer LINEAR survey (Space Surveillance Telescope, Atom Peak, White Sands Missile Range, NM, USA)

* Pictures

* Orbital Elements

T 2019 Jan. 29.76814 TT                                 MPCW
q   3.8399550            (2000.0)            P               Q
                   Peri.  285.78640     +0.29268376     +0.95574363
                   Node     2.11212     -0.19876665     +0.09133360
e   1.0            Incl.   54.05816     -0.93532242     +0.27966460
From 51 observations 2017 Jan. 26-Feb. 2.

* Magnitudes Graph

        m1 = 6.0 + 5 log d + 10.0 log r

---------------------------------------------------------------------

The orbital elements are published on M.P.E.C. 2017-C45.
The magnitudes graphs are made with Comet for Windows.

---------------------------------------------------------------------

Copyright(C) Seiichi Yoshida (comet@aerith.net). All rights reserved.